Regional Weather Roundup
Issued by NWS Charleston, SC

Current Version | Previous Version | Graphics & Text | Print | Product List | Glossary On
Versions: 1 2 3 4 5 6 7 8 9 10 11 12 13 14 15 16 17 18 19 20 21 22 23 24 25 26 27 28 29 30 31 32 33 34 35 36 37 38 39 40 41 42 43 44 45 46 47 48 49 50
000
ASUS42 KCHS 070912
RWRCHS

REGIONAL WEATHER ROUNDUP
NATIONAL WEATHER SERVICE CHARLESTON SC
400 AM EST SUN FEB 07 2016

NOTE: "FAIR" INDICATES FEW OR NO CLOUDS BELOW 12,000 FEET WITH NO
SIGNIFICANT WEATHER AND/OR OBSTRUCTIONS TO VISIBILITY.

NOT ALL STATIONS ARE QUALITY CONTROLLED BY THE NATIONAL
WEATHER SERVICE. USE DATA WITH CAUTION...ESPECIALLY
DEWPOINT OBSERVATIONS.

NOTICE: OBSERVATIONS FOR THE SAVANNAH-HILTON HEAD INTERNATIONAL AIRPORT
/KSAV/ HAVE BEEN TEMPORARILY REMOVED DUE TO AN ERRONEOUS TEMPERATURE
SENSOR. THE OBSERVATION WILL BE REINTRODUCED ONCE REPAIRS ARE COMPLETE.

SCZ027-030-031-034>040-042>050-071000-
...SOUTHEAST SOUTH CAROLINA...

CITY           SKY/WX    TMP DP  RH WIND       PRES   REMARKS
N CHARLESTON   LGT RAIN  39  37  92 N16G23    29.98F WCI  30
WATERFRONT PRK   N/A     40  39  97 N15       29.83F WCI  32
MOUNT PLEASANT CLOUDY    39  37  93 N12G18    30.00S WCI  32
JOHNS ISLAND   RAIN      39  39 100 N13G20    29.98F WCI  32
PINOPOLIS        N/A    N/A N/A N/A N21       29.95F
MONCKS CORNER  LGT RAIN  36  34  93 N13G21    30.02F WCI  27
SUMMERVILLE    LGT RAIN  37  37 100 N13       30.03F WCI  29
BEAUFORT MCAS  LGT RAIN  40  36  86 N18G29    29.98F WCI  31
BEAUFORT ARPT  LGT RAIN  39  37  93 N20G28    29.97F WCI  30
HILTON HEAD IS LGT RAIN  41  39  93 N16G30    29.99F
WALTERBORO     LGT RAIN  41  37  87 NE14G20   30.02F
ALLENDALE      LGT RAIN  39  36  87 VRB6G15   30.04F WCI  35

...SOUTHERN MIDLANDS AND PEE DEE...

CITY           SKY/WX    TMP DP  RH WIND       PRES   REMARKS
GEORGETOWN     NOT AVBL
KINGSTREE      NOT AVBL
ORANGEBURG     LGT RAIN  39  34  82 NE14      30.06F WCI  31
BARNWELL       LGT RAIN  39  37  93 N14       30.05F WCI  31
AIKEN          FAIR      41  25  52 N12       30.10F
MANNING        LGT RAIN  36  34  93 N9G17     30.07F WCI  29
COLUMBIA       LGT RAIN  44  25  47 NE14G24   30.09F
SUMTER         CLOUDY    37  32  81 N9        30.06F WCI  31
FLORENCE       LGT RAIN  38  33  82 NE10      30.10S WCI  31
MYRTLE BEACH   CLOUDY    39  30  70 N17G30    30.02F WCI  30
N MYRTLE BEACH LGT RAIN  39  35  86 N21G31    29.97F WCI  29

$$

GAZ063-065-086>088-099>101-113>116-118-119-134>141-150-071000-
...SOUTHEAST GEORGIA...

CITY           SKY/WX    TMP DP  RH WIND       PRES   REMARKS
SAVANNAH ARPT  RAIN      39  36  89 N15G24    30.01S WCI  31
HUNTER AAF     RAIN      40  39  98 N10G20    29.98R WCI  33
FORT STEWART   HVY RAIN  40  38  92 N15G24    29.99S WCI  32
STATESBORO     LGT RAIN  43  42  95 N12       30.06S
SYLVANIA       LGT RAIN  40  39  97 N10       30.06F WCI  34
CLAXTON        LGT RAIN  41  40  97 NW5       30.05F

...CSRA...CENTRAL AND FAR SOUTHEAST GEORGIA...

CITY           SKY/WX    TMP DP  RH WIND       PRES   REMARKS
THOMSON        MOCLDY    39  31  72 N5        30.15F WCI  36
AUGUSTA-BUSH   MOCLDY    41  31  67 N12       30.09F
AUGUSTA-DANIEL MOCLDY    43  23  45 N8        30.09F
SWAINSBORO     FAIR      37  36  93 NW5       30.08F WCI  34
VIDALIA        CLOUDY    41  36  81 N8        30.07F
EASTMAN        FAIR      37  33  85 CALM      30.12F
HAZLEHURST     FAIR      41  38  87 NW3       30.08S
ALMA           CLOUDY    41  38  89 NW10      30.08R
WAYCROSS       LGT RAIN  43  43  99 N13       30.08R
JESUP          RAIN      43  41  93 N9G16     30.04S
BAXLEY         CLOUDY    43  41  93 NW9       30.08R
BRUNSWICK      RAIN      41  41 100 NW5       30.01S
SAINT SIMONS   RAIN      41  41 100 NW8       29.99S FOG

$$

SCZ027-028-034-036>038-045-046-048>050-GAZ119-141-071000-
...LAKE AND SUPPLEMENTAL COASTAL OBSERVATIONS...

STATION/POSITION TIME  TEMP    WIND        PRES    WAVE   SWELL
                       AIR SEA DIR/SP/G            HT/PER HT/PER/DIR
                 (UTC) (F)     (DEG/KT/KT) (MB)    (FT/S) (FT/S/D)
WINYAH BAY       0745   38      20/ 12     1015.0
LAKE MURRAY      0800   44      10/  1/  5 1019.6S
ACE BASIN NERRS  NOT AVBL
FORT PULASKI     0800   41 54  350/ 15/ 21 1015.7F
SAPELO ISLAND    0800   43     350/ 13     1015.0F

$$

ANZ835-935-AMZ111-154-330-350-352-354-370-450-454-472-071000-
...C-MAN AND BUOY OBSERVATIONS...

STATION/POSITION TIME  TEMP    WIND        PRES    WAVE   SWELL
                       AIR SEA DIR/SP/G            HT/PER HT/PER/DIR
                 (UTC) (F)     (DEG/KT/KT) (MB)    (FT/S) (FT/S/D)
BUOY 41004       0850   50 65   10/ 31/ 39 1011.5F  11/ 7   2/11
BUOY 41008       0850   47 56   10/ 23/ 29 1013.3F   8/ 8   3/100/11
FOLLY BEACH CMAN 0800   40      10/ 17/ 21 1015.7F
CAPERS NEARSHORE 0808   42      30/ 25/ 31 1015.1R
FRIPP NEARSHORE  0800   43      10/ 23/ 29 1015.0F


STATION/POSITION TIME  TEMP    WIND        PRES    WAVE   SWELL
                       AIR SEA DIR/SP/G            HT/PER HT/PER/DIR
                 (UTC) (F)     (DEG/KT/KT) (MB)    (FT/S) (FT/S/D)
5E ST. MARYS GA  0821      56                N/A     7/ 8   2/100/11
FRYING PAN BUOY  0800   49 68   10/ 33/ 41 1013.8F
BUOY 41025       0850   53 71   20/ 29/ 35 1016.8F   8/ 6   3/100/11
CAPE LOOKOUT NC  NOT AVBL
BUOY 41002       0850   65 69  100/ 17/ 21   N/A     7/10   5/ 60/10
BUOY 41010       0820   69 74              1007.3F
ST AUGUSTINE FL  0900   43 57  300/ 12/ 15 1015.4R


$$



USA.gov is the U.S. government's official web portal to all federal, state and local government web resources and services.